Time,TemperatureF,DewpointF,PressureIn,WindDirection,WindDirectionDegrees,WindSpeedMPH,WindSpeedGustMPH,Humidity,HourlyPrecipIn,Conditions,Clouds,dailyrainin,SoftwareType,DateUTC
2013-05-02 00:01:00,60.0,56.0,30.05,NW,323,0.0,3.0,87,0.00,,,0.00,,2013-05-02 07:01:00,
2013-05-02 00:11:00,60.0,56.0,30.05,NW,323,0.0,3.0,87,0.00,,,0.00,,2013-05-02 07:11:00,
2013-05-02 00:21:00,59.0,55.0,30.05,NNW,345,0.0,2.0,88,0.00,,,0.00,,2013-05-02 07:21:00,
2013-05-02 00:31:00,59.0,55.0,30.05,NNE,30,0.0,3.0,88,0.00,,,0.00,,2013-05-02 07:31:00,
2013-05-02 00:41:00,59.0,55.0,30.05,NNE,30,0.0,3.0,88,0.00,,,0.00,,2013-05-02 07:41:00,
2013-05-02 00:51:00,59.0,55.0,30.06,NNE,30,0.0,2.0,88,0.00,,,0.00,,2013-05-02 07:51:00,
2013-05-02 01:02:00,59.0,56.0,30.06,NNE,30,0.0,2.0,89,0.00,,,0.00,,2013-05-02 08:02:00,
2013-05-02 01:11:00,59.0,56.0,30.06,NNE,30,0.0,2.0,89,0.00,,,0.00,,2013-05-02 08:11:00,
2013-05-02 01:21:00,59.0,55.0,30.05,NNE,30,0.0,2.0,88,0.00,,,0.00,,2013-05-02 08:21:00,
2013-05-02 01:32:00,59.0,55.0,30.05,ESE,122,0.0,2.0,88,0.00,,,0.00,,2013-05-02 08:32:00,
2013-05-02 01:42:00,59.0,55.0,30.05,ESE,122,0.0,2.0,88,0.00,,,0.00,,2013-05-02 08:42:00,
2013-05-02 01:52:00,58.0,54.0,30.05,ESE,122,0.0,2.0,88,0.00,,,0.00,,2013-05-02 08:52:00,
2013-05-02 02:02:00,58.0,54.0,30.04,ESE,115,2.0,3.0,88,0.00,,,0.00,,2013-05-02 09:02:00,
2013-05-02 02:11:00,58.0,54.0,30.04,ESE,115,2.0,3.0,88,0.00,,,0.00,,2013-05-02 09:11:00,
2013-05-02 02:21:00,58.0,55.0,30.04,ESE,115,0.0,3.0,89,0.00,,,0.00,,2013-05-02 09:21:00,
2013-05-02 02:32:00,58.0,55.0,30.04,ESE,115,0.0,1.0,89,0.00,,,0.00,,2013-05-02 09:32:00,
2013-05-02 02:42:00,58.0,55.0,30.04,ESE,115,0.0,1.0,89,0.00,,,0.00,,2013-05-02 09:42:00,
2013-05-02 02:52:00,58.0,54.0,30.03,ENE,65,0.0,3.0,88,0.00,,,0.00,,2013-05-02 09:52:00,
2013-05-02 03:02:00,58.0,54.0,30.03,ENE,63,0.0,3.0,88,0.00,,,0.00,,2013-05-02 10:02:00,
2013-05-02 03:12:00,58.0,54.0,30.03,ENE,63,0.0,3.0,88,0.00,,,0.00,,2013-05-02 10:12:00,
2013-05-02 03:22:00,58.0,55.0,30.03,East,89,0.0,1.0,89,0.00,,,0.00,,2013-05-02 10:22:00,
2013-05-02 03:32:00,58.0,55.0,30.03,ENE,74,1.0,3.0,89,0.00,,,0.00,,2013-05-02 10:32:00,
2013-05-02 03:42:00,58.0,55.0,30.03,ENE,74,1.0,3.0,89,0.00,,,0.00,,2013-05-02 10:42:00,
2013-05-02 03:52:00,58.0,55.0,30.03,NE,38,1.0,4.0,89,0.00,,,0.00,,2013-05-02 10:52:00,
2013-05-02 04:02:00,58.0,55.0,30.03,North,9,0.0,4.0,89,0.00,,,0.00,,2013-05-02 11:02:00,
2013-05-02 04:11:00,58.0,55.0,30.03,North,9,0.0,4.0,89,0.00,,,0.00,,2013-05-02 11:11:00,
2013-05-02 04:21:00,58.0,55.0,30.03,NNE,19,1.0,4.0,89,0.00,,,0.00,,2013-05-02 11:21:00,
2013-05-02 04:32:00,57.0,54.0,30.03,NNE,29,2.0,6.0,89,0.00,,,0.00,,2013-05-02 11:32:00,
2013-05-02 04:41:00,57.0,54.0,30.03,NNE,29,2.0,6.0,89,0.00,,,0.00,,2013-05-02 11:41:00,
2013-05-02 04:52:00,57.0,54.0,30.03,NNE,25,2.0,4.0,90,0.00,,,0.00,,2013-05-02 11:52:00,
2013-05-02 05:01:00,57.0,54.0,30.03,NNE,25,0.0,3.0,91,0.00,,,0.00,,2013-05-02 12:01:00,
2013-05-02 05:11:00,57.0,54.0,30.03,NNE,25,0.0,3.0,91,0.00,,,0.00,,2013-05-02 12:11:00,
2013-05-02 05:21:00,56.0,53.0,30.03,NNE,30,1.0,3.0,91,0.00,,,0.00,,2013-05-02 12:21:00,
2013-05-02 05:32:00,56.0,54.0,30.03,NNE,30,1.0,3.0,92,0.00,,,0.00,,2013-05-02 12:32:00,
2013-05-02 05:42:00,56.0,54.0,30.03,NNE,30,1.0,3.0,92,0.00,,,0.00,,2013-05-02 12:42:00,
2013-05-02 05:52:00,55.0,52.0,30.03,NNE,30,0.0,2.0,91,0.00,,,0.00,,2013-05-02 12:52:00,
2013-05-02 06:01:00,55.0,53.0,30.03,NNE,30,0.0,1.0,92,0.00,,,0.00,,2013-05-02 13:01:00,
2013-05-02 06:11:00,55.0,53.0,30.03,NNE,30,0.0,1.0,92,0.00,,,0.00,,2013-05-02 13:11:00,
2013-05-02 06:21:00,55.0,53.0,30.04,NNE,30,0.0,1.0,92,0.00,,,0.00,,2013-05-02 13:21:00,
2013-05-02 06:31:00,55.0,53.0,30.04,NNE,30,0.0,1.0,93,0.00,,,0.00,,2013-05-02 13:31:00,
2013-05-02 06:41:00,55.0,53.0,30.04,NNE,30,0.0,1.0,93,0.00,,,0.00,,2013-05-02 13:41:00,
2013-05-02 06:52:00,56.0,54.0,30.04,NNE,30,0.0,1.0,93,0.00,,,0.00,,2013-05-02 13:52:00,
2013-05-02 07:02:00,56.0,54.0,30.05,NNW,338,1.0,3.0,93,0.00,,,0.00,,2013-05-02 14:02:00,
2013-05-02 07:11:00,56.0,54.0,30.05,NNW,338,1.0,3.0,93,0.00,,,0.00,,2013-05-02 14:11:00,
2013-05-02 07:21:00,56.0,54.0,30.05,NNW,329,0.0,2.0,92,0.00,,,0.00,,2013-05-02 14:21:00,
2013-05-02 07:31:00,57.0,55.0,30.05,NW,322,0.0,2.0,92,0.00,,,0.00,,2013-05-02 14:31:00,
2013-05-02 07:42:00,57.0,55.0,30.05,NW,322,0.0,2.0,92,0.00,,,0.00,,2013-05-02 14:42:00,
2013-05-02 07:52:00,57.0,55.0,30.05,NW,310,0.0,2.0,93,0.00,,,0.00,,2013-05-02 14:52:00,
2013-05-02 08:02:00,58.0,55.0,30.05,South,177,0.0,2.0,90,0.00,,,0.00,,2013-05-02 15:02:00,
2013-05-02 08:12:00,58.0,55.0,30.05,South,177,0.0,2.0,90,0.00,,,0.00,,2013-05-02 15:12:00,
2013-05-02 08:21:00,61.0,56.0,30.06,WNW,299,1.0,4.0,85,0.00,,,0.00,,2013-05-02 15:21:00,
2013-05-02 08:32:00,62.0,56.0,30.06,WSW,252,1.0,4.0,80,0.00,,,0.00,,2013-05-02 15:32:00,
2013-05-02 08:43:00,62.0,56.0,30.06,WSW,252,1.0,4.0,80,0.00,,,0.00,,2013-05-02 15:43:00,
2013-05-02 09:02:00,64.0,57.0,30.06,WNW,286,2.0,4.0,77,0.00,,,0.00,,2013-05-02 16:02:00,
2013-05-02 09:13:00,64.0,57.0,30.06,WNW,286,2.0,4.0,77,0.00,,,0.00,,2013-05-02 16:13:00,
2013-05-02 09:22:00,66.0,56.0,30.06,West,273,3.0,5.0,71,0.00,,,0.00,,2013-05-02 16:22:00,
2013-05-02 09:32:00,68.0,57.0,30.06,WSW,256,2.0,5.0,68,0.00,,,0.00,,2013-05-02 16:32:00,
2013-05-02 09:43:00,68.0,57.0,30.06,WSW,256,2.0,5.0,68,0.00,,,0.00,,2013-05-02 16:43:00,
2013-05-02 09:52:00,68.0,58.0,30.06,West,279,4.0,7.0,70,0.00,,,0.00,,2013-05-02 16:52:00,
2013-05-02 10:02:00,70.0,59.0,30.06,WNW,286,2.0,7.0,68,0.00,,,0.00,,2013-05-02 17:02:00,
2013-05-02 10:12:00,70.0,59.0,30.06,WNW,286,2.0,7.0,68,0.00,,,0.00,,2013-05-02 17:12:00,
2013-05-02 10:22:00,71.0,59.0,30.06,SSW,205,2.0,5.0,66,0.00,,,0.00,,2013-05-02 17:22:00,
2013-05-02 10:31:00,72.0,59.0,30.07,West,276,3.0,7.0,63,0.00,,,0.00,,2013-05-02 17:31:00,
2013-05-02 10:42:00,72.0,59.0,30.07,West,276,3.0,7.0,63,0.00,,,0.00,,2013-05-02 17:42:00,
2013-05-02 10:51:00,72.0,59.0,30.06,West,259,3.0,7.0,64,0.00,,,0.00,,2013-05-02 17:51:00,
2013-05-02 11:01:00,74.0,58.0,30.06,West,262,4.0,7.0,57,0.00,,,0.00,,2013-05-02 18:01:00,
2013-05-02 11:11:00,74.0,58.0,30.06,West,262,4.0,7.0,57,0.00,,,0.00,,2013-05-02 18:11:00,
2013-05-02 11:21:00,75.0,56.0,30.06,WSW,254,1.0,10.0,51,0.00,,,0.00,,2013-05-02 18:21:00,
2013-05-02 11:31:00,79.0,54.0,30.06,West,268,1.0,7.0,42,0.00,,,0.00,,2013-05-02 18:31:00,
2013-05-02 11:41:00,79.0,54.0,30.06,West,268,1.0,7.0,42,0.00,,,0.00,,2013-05-02 18:41:00,
2013-05-02 11:51:00,78.0,58.0,30.05,SW,219,1.0,10.0,50,0.00,,,0.00,,2013-05-02 18:51:00,
2013-05-02 12:01:00,78.0,60.0,30.05,SE,143,3.0,10.0,54,0.00,,,0.00,,2013-05-02 19:01:00,
2013-05-02 12:21:00,78.0,60.0,30.04,SE,142,2.0,11.0,54,0.00,,,0.00,,2013-05-02 19:21:00,
2013-05-02 12:31:00,77.0,59.0,30.04,SSE,166,6.0,12.0,53,0.00,,,0.00,,2013-05-02 19:31:00,
2013-05-02 13:02:00,79.0,54.0,30.03,SSW,205,4.0,9.0,42,0.00,,,0.00,,2013-05-02 20:02:00,
2013-05-02 13:32:00,78.0,57.0,30.03,SSW,209,3.0,8.0,48,0.00,,,0.00,,2013-05-02 20:32:00,
2013-05-02 13:52:00,75.0,55.0,30.02,West,278,5.0,12.0,50,0.00,,,0.00,,2013-05-02 20:52:00,
2013-05-02 14:01:00,76.0,55.0,30.02,WSW,246,5.0,8.0,48,0.00,,,0.00,,2013-05-02 21:01:00,
2013-05-02 14:21:00,78.0,56.0,30.02,SW,236,4.0,10.0,47,0.00,,,0.00,,2013-05-02 21:21:00,
2013-05-02 14:33:00,78.0,57.0,30.01,SSW,211,3.0,13.0,48,0.00,,,0.00,,2013-05-02 21:33:00,
2013-05-02 14:53:00,76.0,56.0,30.01,SW,234,5.0,10.0,50,0.00,,,0.00,,2013-05-02 21:53:00,
2013-05-02 15:02:00,76.0,55.0,30.01,WSW,246,4.0,8.0,48,0.00,,,0.00,,2013-05-02 22:02:00,
2013-05-02 15:22:00,78.0,54.0,30.00,WSW,245,6.0,10.0,43,0.00,,,0.00,,2013-05-02 22:22:00,
2013-05-02 15:32:00,79.0,55.0,29.99,WSW,238,4.0,11.0,43,0.00,,,0.00,,2013-05-02 22:32:00,
2013-05-02 15:52:00,81.0,54.0,29.98,West,267,2.0,9.0,40,0.00,,,0.00,,2013-05-02 22:52:00,
2013-05-02 16:02:00,82.0,52.0,29.98,West,280,2.0,8.0,35,0.00,,,0.00,,2013-05-02 23:02:00,
2013-05-02 16:11:00,82.0,52.0,29.98,West,280,2.0,8.0,35,0.00,,,0.00,,2013-05-02 23:11:00,
2013-05-02 16:22:00,83.0,47.0,29.97,SSW,202,1.0,6.0,29,0.00,,,0.00,,2013-05-02 23:22:00,
2013-05-02 16:31:00,85.0,45.0,29.96,SW,234,4.0,8.0,25,0.00,,,0.00,,2013-05-02 23:31:00,
2013-05-02 16:42:00,85.0,45.0,29.96,SW,234,4.0,8.0,25,0.00,,,0.00,,2013-05-02 23:42:00,
2013-05-02 16:51:00,86.0,45.0,29.95,SW,232,2.0,7.0,24,0.00,,,0.00,,2013-05-02 23:51:00,
2013-05-02 17:01:00,82.0,54.0,29.95,South,182,2.0,8.0,38,0.00,,,0.00,,2013-05-03 00:01:00,
2013-05-02 17:21:00,78.0,56.0,29.95,South,181,4.0,10.0,46,0.00,,,0.00,,2013-05-03 00:21:00,
2013-05-02 17:31:00,74.0,58.0,29.94,SE,132,3.0,8.0,57,0.00,,,0.00,,2013-05-03 00:31:00,
2013-05-02 18:01:00,72.0,59.0,29.93,South,175,2.0,6.0,63,0.00,,,0.00,,2013-05-03 01:01:00,
2013-05-02 18:31:00,70.0,58.0,29.93,SE,142,1.0,4.0,65,0.00,,,0.00,,2013-05-03 01:31:00,
2013-05-02 18:52:00,69.0,58.0,29.93,SE,138,3.0,5.0,68,0.00,,,0.00,,2013-05-03 01:52:00,
2013-05-02 19:01:00,68.0,58.0,29.93,SSE,153,1.0,4.0,71,0.00,,,0.00,,2013-05-03 02:01:00,
2013-05-02 19:21:00,67.0,58.0,29.93,SE,125,2.0,3.0,74,0.00,,,0.00,,2013-05-03 02:21:00,
2013-05-02 19:31:00,66.0,58.0,29.93,SE,125,0.0,4.0,76,0.00,,,0.00,,2013-05-03 02:31:00,
2013-05-02 19:52:00,65.0,58.0,29.93,South,186,2.0,5.0,78,0.00,,,0.00,,2013-05-03 02:52:00,
2013-05-02 20:01:00,64.0,58.0,29.94,SE,142,0.0,3.0,82,0.00,,,0.00,,2013-05-03 03:01:00,
2013-05-02 20:21:00,64.0,58.0,29.94,SSE,148,0.0,3.0,82,0.00,,,0.00,,2013-05-03 03:21:00,
2013-05-02 20:33:00,63.0,58.0,29.94,SSE,148,0.0,2.0,84,0.00,,,0.00,,2013-05-03 03:33:00,
2013-05-02 20:52:00,63.0,58.0,29.94,East,79,1.0,5.0,83,0.00,,,0.00,,2013-05-03 03:52:00,
2013-05-02 21:02:00,63.0,57.0,29.94,SE,139,0.0,3.0,82,0.00,,,0.00,,2013-05-03 04:02:00,
2013-05-02 21:12:00,63.0,57.0,29.94,SE,139,0.0,3.0,82,0.00,,,0.00,,2013-05-03 04:12:00,
2013-05-02 21:22:00,63.0,57.0,29.95,SW,232,1.0,3.0,81,0.00,,,0.00,,2013-05-03 04:22:00,
2013-05-02 21:32:00,63.0,57.0,29.95,WNW,294,1.0,4.0,80,0.00,,,0.00,,2013-05-03 04:32:00,
2013-05-02 21:52:00,63.0,54.0,29.95,South,191,0.0,3.0,73,0.00,,,0.00,,2013-05-03 04:52:00,
2013-05-02 22:02:00,63.0,54.0,29.95,South,191,1.0,3.0,72,0.00,,,0.00,,2013-05-03 05:02:00,
2013-05-02 22:11:00,63.0,54.0,29.95,South,191,1.0,3.0,72,0.00,,,0.00,,2013-05-03 05:11:00,
2013-05-02 22:21:00,63.0,55.0,29.96,WNW,282,0.0,2.0,76,0.00,,,0.00,,2013-05-03 05:21:00,
2013-05-02 22:32:00,63.0,55.0,29.96,North,5,2.0,4.0,74,0.00,,,0.00,,2013-05-03 05:32:00,
2013-05-02 22:52:00,62.0,52.0,29.96,North,5,1.0,3.0,70,0.00,,,0.00,,2013-05-03 05:52:00,
2013-05-02 23:01:00,64.0,47.0,29.97,North,5,0.0,3.0,54,0.00,,,0.00,,2013-05-03 06:01:00,
2013-05-02 23:11:00,64.0,47.0,29.97,North,5,0.0,3.0,54,0.00,,,0.00,,2013-05-03 06:11:00,
2013-05-02 23:21:00,65.0,46.0,29.96,North,5,0.0,2.0,50,0.00,,,0.00,,2013-05-03 06:21:00,
2013-05-02 23:31:00,62.0,51.0,29.97,South,172,0.0,4.0,68,0.00,,,0.00,,2013-05-03 06:31:00,
2013-05-02 23:51:00,61.0,51.0,29.97,South,172,0.0,1.0,70,0.00,,,0.00,,2013-05-03 06:51:00,